Terug naar catalogus

FENGYUN 1C DEB

ActiefSSO
NORAD 29979·DEBRIS·🇨🇳 China

Gelanceerd May 10, 1999 vanaf Taiyuan Satellite Launch Center

Loading…

Volgende Passages (komende 24 uur)

TLE

VersSource: Space-Track

Epoch: Sep 14, 2026, 01:13 UTC

1 29979U 99025LD  26257.05128693  .00000688  00000-0  28445-3 0  9995
2 29979  98.3540 272.8783 0107880  73.9910 347.9241 14.26489603 19987

Volg FENGYUN 1C DEB in realtime met AllMySat

Download on the App Store